Flag for U.S.A. Weather past 2 weeks in Stroudsburg, Pennsylvania, U.S.A.

Now
36 °F

Scattered clouds.


Feels Like: 28 °F
Forecast: 34 / 47 °F
Wind: 12 mph from Northwest

Location: Pocono Mountains Municipal Airport

Current Time: Mar 27, 2015 at 5:31:58 PM

Latest Report: Mar 27, 2015 at 4:53 PM


Visibility: 10 mi

Pressure: 29.73 "Hg

Humidity: 57%

Dew point: 22 °F

Location of StroudsburgLocation

Historic Weather in Stroudsburg — Graph

°F

Stroudsburg temperature yesterday

Maximum temperature yesterday: 52 °F (at 5:53 PM)
Minimum temperature yesterday: 37 °F (at 9:53 PM)
Average temperature yesterday: 43 °F

Past Weeks' High & Low Weather Summary

 TemperatureHumidityPressure
High52 °F (Mar 26, 5:53 PM)97% (Mar 14, 9:53 AM)30.61 "Hg (Mar 14, 9:53 AM)
Low14 °F (Mar 24, 6:53 AM)19% (Mar 12, 4:53 PM)29.57 "Hg (Mar 17, 8:00 AM)
Average31 °F64%30.07 "Hg
* Reported Mar 12 3:53 PM — Mar 27 3:53 PM, Stroudsburg, Weather by CustomWeather, © 2015

Note: Actual official high and low records may vary slightly from our data, if they occured in-between our weather recording intervals... More about our weather records

Advertising

Stroudsburg weather history for previous 24 hours

 ConditionsComfort  
Time TempWeatherWind HumidityBarometerVisibility
3:53 PM
Fri, Mar 27
37 °FOvercast.10 mph57%29.74 "Hg10 mi
2:53 PM35 °FPartly sunny.12 mph61%29.75 "Hg10 mi
1:53 PM34 °FMostly cloudy.8 mph67%29.77 "Hg10 mi
12:53 PM34 °FOvercast.14 mph73%29.73 "Hg10 mi
11:53 AM34 °FMostly cloudy.8 mph73%29.76 "Hg10 mi
10:53 AM34 °FMore clouds than sun.8 mph73%29.76 "Hg10 mi
9:53 AM33 °FMostly cloudy.10 mph78%29.75 "Hg10 mi
8:53 AM33 °FOvercast.9 mph82%29.75 "Hg9 mi
7:53 AM33 °FMostly cloudy.9 mph82%29.72 "Hg8 mi
6:53 AM33 °FMostly cloudy.10 mph82%29.75 "Hg10 mi
5:53 AM33 °FMostly cloudy.10 mph82%29.73 "Hg9 mi
4:53 AM33 °FLow clouds.15 mph88%29.73 "Hg7 mi
3:53 AM33 °FLow clouds.18 mph85%29.72 "Hg8 mi
2:53 AM34 °FLow clouds.20 mph85%29.73 "Hg9 mi
2:00 AM34 °FFog.14 mph92%29.69 "Hg3 mi
12:53 AM35 °FFog.18 mph92%29.72 "Hg6 mi
11:53 PM
Thu, Mar 26
37 °FLow clouds.10 mph89%29.70 "Hg10 mi
10:53 PM37 °FLow clouds.9 mph89%29.70 "Hg10 mi
9:53 PM37 °FLow clouds.12 mph93%29.70 "Hg10 mi
8:53 PM38 °FLight rain. Mostly cloudy.16 mph90%29.67 "Hg7 mi
7:53 PM40 °FLight rain. Mostly cloudy.15 mph93%29.67 "Hg7 mi
7:02 PM41 °FRain. Fog.13 mph93%29.64 "Hg2 mi
6:53 PM41 °FHeavy rain. Fog.15 mph93%29.67 "Hg2 mi
5:53 PM52 °FFog.10 mph97%29.61 "Hg0 mi
Weather by CustomWeather, © 2015

See weather overviewHow to use our weather pages